Terminal Aerodrome Forecast
Issued by NWS Portland, ME

Home | Current Version | Previous Version | Text Only | Print | Product List | Glossary On
Versions: 1 2 3 4 5 6 7 8 9 10 11 12 13 14 15
000
FTUS41 KGYX 222300
TAFPWM
TAF
KPWM 222322Z 2300/2324 20008KT P6SM FEW200
     FM230600 22004KT 5SM BR SKC
     FM231100 21009G16KT P6SM FEW060 SCT250=

USA.gov is the U.S. government's official web portal to all federal, state and local government web resources and services.